Tracking 31028 objects as of 17-Jul-2025
HD Live streaming from Space Station
objects crossing your sky now

CRRES DEB (CANISTER)

Track CRRES DEB (CANISTER) now!
10-day predictions


NORAD ID: 21948
Int'l Code: 1990-065S
Perigee: 313.3 km
Apogee: 22,323.6 km
Inclination: 17.8 °
Period: 390.2 minutes
Semi major axis: 17689 km
RCS: 0.1262 m2 (medium)
Launch date: July 25, 1990
Source: United States (US)
Launch site: AIR FORCE EASTERN TEST RANGE (AFETR)

Note: This is SATELLITE DEBRIS
Your satellite tracking list
Your tracking list is empty




NASA's NSSDC Master Catalog

Two Line Element Set (TLE):
1 21948U 90065S   25196.53025708  .00001188  00000-0  48149-3 0  9994
2 21948  17.8415 308.4241 6221332  47.7633 350.3846  3.69004725351120
Source of the keplerian elements: AFSPC